BEIDOU 10

Last updated on Nov. 20, 2019, 4:20 a.m. UTC

1 37948U 11073A   19322.88628397 -.00000138  00000-0  10000-3 0  9998
2 37948  51.9157 300.4087 0064301 213.7164 316.6820  1.00261759 29313
UTC
Height (km)
Latitude
Longitude
Inclination
Orbital Period
UTC large
Height (km)
Speed (km/s)
/
Latitude / Longitude
Inclination (degrees)
Orbital Period (minutes)
Azimuth
Elevation
Range (km)
Doppler Factor
iOS Compass Heading
iOS Angle

Next 30 passes for location: Hong Kong

Rise time Rise Azimuth (degrees) Set time Set Azimuth (degrees) Duration Max altitude (degrees)

No matching passes for this satellites